Clearfield, PA

3:02 PM EDT on June 25, 2017 (GMT -0400)
Clearfield-Lawrence

Weather History for KFIG - November, 2013

Change the Weather History Date:

Tuesday, November 26, 2013

  Actual Average (KDUJ) Record (KDUJ)
Temperature  
Mean Temperature 30 °F -  
Max Temperature 32 °F 44 °F 63 °F (2006)
Min Temperature 28 °F 29 °F 15 °F (1974)
Degree Days  
Heating Degree Days 35    
Moisture  
Dew Point 30 °F    
Average Humidity 98    
Maximum Humidity 100    
Minimum Humidity 80    
Precipitation  
Precipitation 1.17 in - - ()
Sea Level Pressure  
Sea Level Pressure 30.06 in    
Wind  
Wind Speed 6 mph (ESE)    
Max Wind Speed 9 mph    
Max Gust Speed 20 mph    
Visibility 3 miles    
Events Rain , Snow    
Averages and records for this station are not official NWS values.
T = Trace of Precipitation, MM = Missing Value Source: NWS Daily Summary

Daily Weather History Graph

Daily Weather History Graph

Search for Another Location

Airport or City:

Trip Planner

Search our weather history database for the weather conditions in past years. The results will help you decide how hot, cold, wet, or windy it might be!

Date:

Astronomy

Nov. 26, 2013 Rise Set
Actual Time 7:14 AM EST 4:47 PM EST
Civil Twilight 6:43 AM EST 5:17 PM EST
Nautical Twilight 6:09 AM EST 5:51 PM EST
Astronomical Twilight 5:36 AM EST 6:24 PM EST
Moon 12:12 AM EST (11/26) 12:56 PM EST (11/26)
Length of Visible Light 10h 34m
Length of Day
9h 33m
Last Quarter, 41% of the Moon is Illuminated
Nov 26
Last Quarter
Dec 2
New
Dec 9
First Quarter
Dec 17
Full
Dec 25
Last Quarter

Hourly Weather History & Observations

Time (EST) Temp. Windchill Dew Point Humidity Pressure Visibility Wind Dir Wind Speed Gust Speed Precip Events Conditions
12:51 AM 30.2 °F 21.9 °F 24.8 °F 80% 30.17 in 2.5 mi SW 9.2 mph 19.6 mph 0.00 in Snow Light Snow
12:54 AM 30.0 °F 23.2 °F 26.1 °F 85% 30.23 in 2.0 mi SW 6.9 mph 19.6 mph 0.00 in Snow Light Snow
1:14 AM 28.9 °F 22.8 °F 27.0 °F 92% 30.16 in 1.0 mi SW 5.8 mph - 0.01 in Snow Light Snow
1:29 AM 28.9 °F 21.9 °F 28.0 °F 96% 30.15 in 2.0 mi SSW 6.9 mph - 0.01 in Snow Light Snow
1:43 AM 28.9 °F 22.8 °F 28.9 °F 100% 30.14 in 3.0 mi SSW 5.8 mph - 0.01 in Snow Light Snow
1:54 AM 28.9 °F 21.9 °F 28.9 °F 100% 30.21 in 3.0 mi SSW 6.9 mph - 0.01 in Snow Light Snow
2:30 AM 28.9 °F 21.9 °F 28.9 °F 100% 30.17 in 4.0 mi SW 6.9 mph - 0.00 in Snow Light Snow
2:54 AM 28.9 °F 20.4 °F 28.9 °F 100% 30.23 in 3.0 mi SW 9.2 mph - 0.00 in Snow Light Snow
3:03 AM 28.9 °F 21.9 °F 28.0 °F 96% 30.17 in 4.0 mi SW 6.9 mph - 0.00 in Snow Light Snow
3:21 AM 28.9 °F 21.9 °F 28.0 °F 96% 30.16 in 4.0 mi SSW 6.9 mph - 0.00 in Snow Light Snow
3:28 AM 28.9 °F 22.8 °F 28.9 °F 100% 30.16 in 4.0 mi SSW 5.8 mph - 0.00 in Snow Light Snow
3:34 AM 28.9 °F 22.8 °F 28.9 °F 100% 30.16 in 2.5 mi SSW 5.8 mph - 0.00 in Snow Light Snow
3:43 AM 28.9 °F 23.9 °F 28.9 °F 100% 30.16 in 1.2 mi SSW 4.6 mph - 0.00 in Snow Light Snow
3:50 AM 28.4 °F 24.6 °F 28.4 °F 100% 30.16 in 2.0 mi SSW 3.5 mph - 0.01 in Snow Light Snow
3:51 AM 28.9 °F 23.9 °F 28.9 °F 100% 30.21 in 2.0 mi SSW 4.6 mph - 0.01 in Snow Light Snow
4:04 AM 28.9 °F 22.8 °F 28.9 °F 100% 30.15 in 1.8 mi SSW 5.8 mph - 0.00 in Snow Light Snow
4:21 AM 28.9 °F 23.9 °F 28.9 °F 100% 30.16 in 2.5 mi SSW 4.6 mph - 0.00 in Snow Light Snow
4:29 AM 28.9 °F 25.2 °F 28.9 °F 100% 30.15 in 3.0 mi South 3.5 mph - 0.00 in Snow Light Snow
4:54 AM 28.9 °F 23.9 °F 28.9 °F 100% 30.22 in 2.5 mi SSW 4.6 mph - 0.00 in Snow Light Snow
5:00 AM 28.9 °F 25.2 °F 28.9 °F 100% 30.17 in 3.0 mi SSW 3.5 mph - 0.00 in Snow Light Snow
5:15 AM 28.9 °F 23.9 °F 28.9 °F 100% 30.17 in 2.5 mi SW 4.6 mph - 0.00 in Snow Light Snow
5:32 AM 28.9 °F 22.8 °F 28.9 °F 100% 30.16 in 3.0 mi SSW 5.8 mph - 0.00 in Snow Light Snow
5:41 AM 28.9 °F 23.9 °F 28.9 °F 100% 30.16 in 4.0 mi SW 4.6 mph - 0.00 in Snow Light Snow
5:54 AM 28.9 °F 22.8 °F 28.9 °F 100% 30.22 in 4.0 mi SW 5.8 mph - 0.00 in Snow Light Snow
6:21 AM 28.9 °F 25.2 °F 28.9 °F 100% 30.14 in 3.0 mi South 3.5 mph - 0.00 in Snow Light Snow
6:54 AM 28.9 °F 23.9 °F 28.9 °F 100% 30.20 in 4.0 mi South 4.6 mph - 0.00 in   Overcast
7:54 AM 30.0 °F 25.2 °F 28.9 °F 96% 30.22 in 1.2 mi South 4.6 mph - 0.00 in Snow Light Snow
8:10 AM 30.0 °F 26.5 °F 28.9 °F 96% 30.16 in 1.0 mi Variable 3.5 mph - 0.01 in Snow Light Snow
8:19 AM 30.0 °F - 30.0 °F 100% 30.16 in 0.8 mi Calm Calm - 0.01 in Snow Light Snow
8:29 AM 30.0 °F - 28.9 °F 96% 30.16 in 1.0 mi Calm Calm - 0.01 in Snow Light Snow
8:37 AM 30.0 °F - 28.9 °F 96% 30.16 in 0.8 mi Calm Calm - 0.02 in Snow Light Snow
8:54 AM 30.0 °F - 30.0 °F 100% 30.21 in 0.8 mi Calm Calm - 0.02 in Snow Light Snow
9:10 AM 30.0 °F - 28.9 °F 96% 30.14 in 1.2 mi Calm Calm - 0.01 in Snow Light Snow
9:25 AM 30.0 °F 26.5 °F 28.9 °F 96% 30.14 in 0.8 mi ENE 3.5 mph - 0.01 in Snow Light Snow
9:45 AM 30.0 °F 24.1 °F 30.0 °F 100% 30.13 in 1.0 mi ENE 5.8 mph - 0.02 in Snow Light Snow
9:54 AM 30.0 °F 25.2 °F 28.9 °F 96% 30.19 in 1.2 mi ENE 4.6 mph - 0.02 in Snow Light Snow
10:06 AM 30.9 °F 26.2 °F 30.0 °F 96% 30.13 in 1.2 mi ENE 4.6 mph - 0.00 in Snow Light Snow
10:40 AM 30.9 °F 27.5 °F 30.0 °F 96% 30.13 in 1.0 mi ENE 3.5 mph - 0.01 in Snow Light Snow
10:54 AM 30.9 °F 24.3 °F 30.0 °F 96% 30.17 in 0.8 mi East 6.9 mph - 0.02 in Snow Light Snow
11:10 AM 30.9 °F 25.2 °F 30.0 °F 96% 30.11 in 1.0 mi ESE 5.8 mph - 0.00 in Snow Light Snow
11:54 AM 30.9 °F 27.5 °F 30.0 °F 96% 30.13 in 1.8 mi ESE 3.5 mph - 0.01 in Snow Light Snow
12:06 PM 30.9 °F 27.5 °F 30.0 °F 96% 30.07 in 2.0 mi East 3.5 mph - 0.01 in Snow Light Snow
12:16 PM 30.9 °F 27.5 °F 30.0 °F 96% 30.07 in 1.5 mi East 3.5 mph - 0.01 in Snow Light Snow
12:31 PM 30.9 °F 27.5 °F 30.9 °F 100% 30.06 in 0.8 mi ENE 3.5 mph - 0.02 in Snow Light Snow
12:48 PM 30.2 °F 26.7 °F 30.2 °F 100% 30.05 in 1.0 mi East 3.5 mph - 0.02 in Snow Light Snow
12:54 PM 30.9 °F 25.2 °F 30.0 °F 96% 30.10 in 1.0 mi East 5.8 mph - 0.03 in Snow Light Snow
1:15 PM 30.9 °F 25.2 °F 30.0 °F 96% 30.04 in 1.2 mi East 5.8 mph - 0.00 in Snow Light Snow
1:54 PM 30.0 °F 24.1 °F 28.9 °F 96% 30.08 in 1.0 mi East 5.8 mph - 0.02 in Snow Light Snow
2:05 PM 30.0 °F 24.1 °F 30.0 °F 100% 30.01 in 0.8 mi East 5.8 mph - 0.01 in Snow Light Snow
2:12 PM 30.0 °F 25.2 °F 30.0 °F 100% 30.01 in 0.8 mi East 4.6 mph - 0.01 in Snow Light Snow
2:36 PM 30.0 °F 25.2 °F 28.9 °F 96% 30.01 in 0.8 mi East 4.6 mph - 0.04 in Snow Light Snow
2:54 PM 30.0 °F 24.1 °F 28.9 °F 96% 30.05 in 0.8 mi East 5.8 mph - 0.06 in Snow Light Snow
3:06 PM 30.0 °F 24.1 °F 28.9 °F 96% 29.99 in 1.0 mi East 5.8 mph - 0.02 in Snow Light Snow
3:18 PM 30.0 °F 25.2 °F 28.9 °F 96% 29.99 in 2.0 mi ENE 4.6 mph - 0.03 in Snow Light Snow
3:28 PM 30.0 °F 23.2 °F 28.9 °F 96% 29.98 in 3.0 mi ENE 6.9 mph - 0.04 in Rain Light Freezing Rain
3:35 PM 30.0 °F 25.2 °F 30.0 °F 100% 29.98 in 3.0 mi NE 4.6 mph - 0.04 in Rain Light Freezing Rain
3:54 PM 30.0 °F 25.2 °F 30.0 °F 100% 30.04 in 3.0 mi NE 4.6 mph - 0.06 in Rain Light Freezing Rain
4:11 PM 30.9 °F 25.2 °F 30.0 °F 96% 29.97 in 3.0 mi ENE 5.8 mph - 0.02 in Rain Light Freezing Rain
4:13 PM 30.9 °F 25.2 °F 30.0 °F 96% 29.97 in 2.5 mi ENE 5.8 mph - 0.02 in Rain Light Freezing Rain
4:27 PM 30.9 °F 25.2 °F 30.9 °F 100% 29.98 in 3.0 mi East 5.8 mph - 0.04 in Rain Light Freezing Rain
4:34 PM 30.9 °F 24.3 °F 30.0 °F 96% 29.97 in 5.0 mi East 6.9 mph - 0.04 in Rain Light Freezing Rain
4:50 PM 30.2 °F 23.4 °F 30.2 °F 100% 29.98 in 5.0 mi ESE 6.9 mph - 0.06 in Rain Light Freezing Rain
4:54 PM 30.9 °F 26.2 °F 30.9 °F 100% 30.04 in 5.0 mi East 4.6 mph - 0.07 in Rain Light Freezing Rain
5:54 PM 30.9 °F 25.2 °F 30.9 °F 100% 30.00 in 4.0 mi ESE 5.8 mph - 0.09 in Rain Light Freezing Rain
6:47 PM 30.9 °F 24.3 °F 30.9 °F 100% 29.93 in 4.0 mi ENE 6.9 mph - 0.10 in Rain Light Freezing Rain
6:54 PM 30.9 °F 24.3 °F 30.9 °F 100% 29.96 in 4.0 mi ENE 6.9 mph - 0.12 in Rain Light Freezing Rain
7:27 PM 30.9 °F 24.3 °F 30.9 °F 100% 29.88 in 5.0 mi NE 6.9 mph - 0.06 in   Overcast
7:34 PM 30.9 °F 26.2 °F 30.9 °F 100% 29.88 in 5.0 mi NE 4.6 mph - 0.08 in Rain Light Freezing Rain
7:47 PM 32.0 °F 26.4 °F 32.0 °F 100% 29.86 in 4.0 mi NE 5.8 mph - 0.11 in Rain Light Freezing Rain
7:54 PM 30.9 °F 23.5 °F 30.9 °F 100% 29.90 in 4.0 mi NE 8.1 mph - 0.12 in Rain Light Freezing Rain
8:04 PM 30.9 °F 23.5 °F 30.9 °F 100% 29.84 in 4.0 mi NE 8.1 mph - 0.02 in Rain Light Freezing Rain
8:15 PM 32.0 °F 25.6 °F 30.9 °F 96% 29.84 in 5.0 mi NE 6.9 mph - 0.05 in Rain Light Freezing Rain
8:54 PM 32.0 °F 24.2 °F 32.0 °F 100% 29.85 in 4.0 mi NE 9.2 mph - 0.15 in Rain Light Freezing Rain
9:54 PM 32.0 °F 24.8 °F 32.0 °F 100% 29.82 in 4.0 mi NE 8.1 mph - 0.17 in Rain Light Freezing Rain
10:54 PM 32.0 °F 24.2 °F 32.0 °F 100% 29.74 in 5.0 mi NE 9.2 mph - 0.18 in Rain Light Freezing Rain
11:14 PM 32.0 °F 27.5 °F 32.0 °F 100% 29.70 in 10.0 mi NNE 4.6 mph - 0.00 in   Overcast
11:24 PM 32.0 °F 24.8 °F 32.0 °F 100% 29.68 in 7.0 mi NE 8.1 mph - 0.00 in Rain Light Freezing Rain
11:54 PM 32.0 °F 28.7 °F 32.0 °F 100% 29.72 in 5.0 mi North 3.5 mph - 0.01 in Rain Light Freezing Rain